Temp_Advection
nan nan nan nan nan nan nan nan nan nan nan nan nan nan nan nan nan nan nan nan nan nan nan nan nan nan nan nan nan nan nan nan nan nan nan nan nan nan nan nan nan nan nan
nan 0 0 -0 -0 0 1 -0 -0 0 0 -0 -0 -0 0 0 0 0 0 0 0 0 0 0 0 0 0 0 0 0 0 0 -0 -0 -0 -0 0 -0 -0 -0 -0 -0 nan
nan 0 -1 -1 0 0 0 -0 -0 -0 -0 0 0 0 0 -0 -0 0 0 0 0 0 0 0 0 0 0 0 0 0 0 0 0 -0 -0 0 -0 0 0 -0 -0 -0 nan
nan -1 0 0 -1 0 0 -0 1 1 0 -0 0 0 0 0 -0 0 0 0 0 0 0 0 0 0 0 0 0 0 0 0 0 -0 -0 -0 -0 -0 0 0 -0 -0 nan
nan 1 0 -2 -1 1 0 2 1 1 0 0 1 1 0 0 0 0 0 0 0 0 0 0 0 0 0 0 0 0 0 0 -0 -0 -0 -0 -0 -0 -0 -0 0 -0 nan
nan -0 -0 0 1 0 0 1 1 1 0 1 1 1 0 1 1 0 0 0 0 0 0 0 0 0 0 0 0 0 0 0 -0 -0 -0 -0 -0 -0 -0 -0 -0 -0 nan
nan 1 1 0 0 -0 1 1 0 1 1 1 1 1 1 1 0 0 0 0 0 0 0 0 0 0 0 0 0 0 0 0 0 0 -0 -0 -0 -0 -0 0 0 -0 nan
nan -0 -0 0 -0 0 1 -1 1 1 0 1 1 1 1 0 0 0 1 1 1 0 0 0 0 0 0 0 0 0 0 0 0 0 0 -0 -0 -0 -0 -0 0 -0 nan
nan -1 -1 -0 0 1 0 0 1 0 1 1 1 1 0 0 0 1 1 1 0 0 0 0 0 0 0 0 0 0 0 0 0 0 0 -0 -0 -0 -0 -0 0 -0 nan
nan 0 1 1 0 1 2 1 1 3 2 1 2 1 1 1 1 1 1 1 0 0 0 0 0 0 0 0 0 0 0 0 0 0 0 0 -0 -0 -0 -0 0 0 nan
nan -0 0 1 1 2 2 3 4 3 2 3 2 2 1 0 0 0 1 1 0 1 1 1 0 0 0 0 0 0 0 0 0 0 0 0 0 -0 -0 -0 0 0 nan
nan -0 -0 1 1 2 3 3 2 1 2 3 3 2 0 0 1 1 1 1 1 1 1 1 1 0 0 0 0 0 0 0 0 0 0 0 0 0 0 0 0 0 nan
nan 0 1 1 0 1 0 0 -0 1 2 3 2 1 1 1 1 1 1 1 1 1 1 1 0 0 0 0 0 0 0 0 0 0 0 0 0 -0 -0 0 -0 -0 nan
nan 1 1 -0 -0 -0 -0 -0 0 1 1 1 1 0 1 1 0 1 1 1 1 1 1 0 0 0 0 0 0 0 0 0 0 0 0 -0 -0 0 -0 0 0 -0 nan
nan 1 0 0 0 1 1 1 1 1 1 1 1 1 1 1 1 1 1 1 1 1 1 0 0 0 0 0 0 0 0 0 0 0 -0 -0 -0 -0 0 0 0 0 nan
nan 1 -0 0 0 1 1 1 1 1 1 1 1 1 1 1 2 1 1 1 0 0 0 0 0 0 0 0 0 0 0 0 0 0 -0 0 0 0 0 0 0 0 nan
nan 0 -0 0 0 0 0 0 1 1 1 1 1 2 1 1 1 1 1 0 0 0 0 0 0 0 0 0 0 0 0 0 0 0 0 0 0 -0 -0 -0 -0 -0 nan
nan 0 0 -0 0 0 0 0 1 1 1 1 1 1 1 1 1 1 0 0 0 0 0 0 0 0 0 0 -0 -0 0 0 0 -0 -0 -0 0 0 -0 0 -0 -0 nan
nan 1 1 1 1 1 1 1 2 2 1 1 1 1 1 1 0 0 0 0 0 0 0 0 0 0 0 0 0 -0 0 0 -0 -0 0 -0 -0 -0 0 0 0 -0 nan
nan 2 1 1 1 1 1 1 1 2 1 2 1 1 1 1 0 0 0 0 0 0 0 0 0 0 0 0 0 0 0 -0 -0 -0 -0 -0 -0 -0 0 -0 -0 -0 nan
nan 2 1 1 2 2 1 1 1 1 1 0 1 1 1 1 0 0 0 0 0 0 0 0 0 0 0 0 0 0 -0 -0 -0 -0 -0 -0 -0 -0 -0 -0 -0 -0 nan
nan 2 2 1 1 1 1 1 1 0 0 0 1 1 1 1 1 0 0 0 0 0 0 0 0 0 0 0 0 0 0 0 0 -0 -0 -0 -0 -0 -0 -0 -0 0 nan
nan 1 1 2 1 1 1 1 1 1 1 1 0 1 0 0 0 0 0 0 0 0 0 0 0 0 0 -0 -0 0 0 0 0 -0 -0 -0 -0 0 0 -0 -0 -0 nan
nan 1 1 3 2 1 1 1 1 1 1 1 0 1 1 0 0 0 0 0 0 0 0 0 0 0 0 0 0 0 0 -0 -0 -0 -0 -0 -0 -0 -0 0 -0 -0 nan
nan 1 2 1 1 1 2 2 1 1 1 1 1 0 0 0 0 0 0 0 0 0 0 0 0 0 0 0 0 0 -0 -0 -0 -0 -0 0 -0 -0 -0 -0 -0 -0 nan
nan nan nan nan nan nan nan nan nan nan nan nan nan nan nan nan nan nan nan nan nan nan nan nan nan nan nan nan nan nan nan nan nan nan nan nan nan nan nan nan nan nan nan
Wind_Speed
25 21 18 20 24 29 32 36 35 33 32 31 28 25 22 20 18 16 14 13 11 10 8 7 6 5 5 4 4 5 6 6 5 4 2 1 1 2 3 2 4 5 8
26 27 23 18 24 31 34 37 37 36 34 32 29 27 25 21 19 17 16 15 13 11 10 8 7 6 5 4 4 4 5 5 5 4 4 2 1 3 1 2 3 5 7
26 28 30 29 23 30 33 37 40 39 35 32 31 29 26 23 22 21 19 17 15 14 12 10 9 7 6 5 4 4 4 4 5 5 4 1 1 1 1 2 3 8 6
27 28 38 34 28 24 33 34 37 40 39 36 33 31 27 26 24 22 21 19 17 16 13 12 10 8 7 5 4 3 3 3 3 3 3 3 1 1 1 2 3 8 6
28 27 30 38 34 27 28 33 38 41 41 37 35 32 29 24 22 23 22 21 19 17 15 13 11 9 8 6 4 3 2 2 2 2 2 2 2 2 1 1 3 5 6
29 26 29 29 33 31 30 35 38 40 42 40 38 35 30 25 25 25 25 24 22 19 17 15 13 11 9 7 5 3 2 1 1 1 1 1 1 2 2 2 6 8 4
25 28 26 31 31 35 32 31 35 40 43 43 40 36 31 26 25 26 27 26 24 22 19 16 14 12 10 8 6 4 3 2 2 2 2 2 3 4 5 6 5 8 9
14 21 26 27 28 33 38 36 30 38 42 44 42 37 32 28 26 25 25 25 24 22 20 18 15 13 11 9 7 6 5 4 4 3 4 5 5 6 7 8 9 8 8
19 21 22 23 31 32 40 43 38 36 41 42 40 37 33 31 29 26 26 26 25 23 20 18 16 13 11 9 8 7 6 5 5 5 6 6 7 8 9 9 10 8 8
14 20 21 21 26 33 35 40 38 43 47 42 39 36 33 30 28 27 27 26 24 22 21 18 16 14 12 10 9 8 7 6 5 6 6 7 8 9 9 10 11 11 10
10 15 17 19 21 28 33 36 39 48 47 44 43 41 35 33 29 26 26 25 23 22 20 18 16 14 12 10 9 7 6 6 5 5 6 7 7 8 9 11 12 12 13
8 12 15 16 18 23 27 32 39 42 47 48 45 41 38 32 28 29 26 23 23 22 20 18 15 13 12 10 8 6 5 4 4 4 5 7 9 10 12 13 14 14 14
9 10 12 14 18 24 29 34 37 42 44 43 42 39 35 33 29 30 28 26 23 22 20 17 15 13 11 9 7 6 4 4 5 6 8 9 11 12 14 14 15 14 15
13 12 14 18 21 26 31 34 37 40 41 40 38 36 35 32 30 27 27 25 25 22 19 17 14 12 11 9 7 5 4 5 6 8 10 12 13 14 15 15 14 14 15
17 17 17 20 23 28 32 35 37 38 37 38 38 36 34 34 30 31 30 27 24 20 18 16 14 12 10 7 5 4 4 6 9 10 12 13 15 16 16 16 15 15 13
19 19 20 24 27 31 35 36 38 37 37 37 36 36 35 32 35 33 28 25 22 20 18 17 13 9 7 5 5 6 7 9 10 12 13 14 15 16 16 17 17 18 18
22 24 27 28 30 32 33 38 38 37 36 36 35 35 36 36 32 29 27 24 22 20 16 13 11 7 5 5 7 8 9 11 12 13 14 15 16 16 16 16 15 15 16
24 27 29 30 33 35 36 36 37 38 37 37 37 36 34 33 31 27 25 23 21 17 13 10 7 5 5 7 10 11 11 12 12 13 14 14 14 15 14 13 14 14 13
26 28 31 34 34 37 37 36 37 36 37 37 36 34 32 30 29 28 25 21 17 14 10 7 5 6 7 9 11 10 10 10 11 12 13 13 13 13 13 13 13 14 14
23 27 33 36 38 38 38 39 40 41 41 39 37 34 32 30 28 25 22 18 14 10 8 6 6 7 8 9 10 10 10 10 10 11 11 12 12 13 12 11 13 15 15
23 31 36 38 38 40 42 42 41 40 39 37 37 34 30 28 25 22 17 14 11 8 6 5 6 7 7 7 8 9 9 9 10 11 11 11 12 12 11 12 14 15 17
25 28 39 39 38 40 42 43 42 41 39 37 34 32 28 24 21 18 15 11 8 6 5 5 5 6 7 7 7 9 9 10 8 9 10 12 13 13 15 14 16 19 18
22 29 37 42 40 40 41 44 42 40 38 36 32 28 25 22 18 15 11 8 6 4 4 5 6 6 6 7 8 8 8 8 8 10 12 14 15 16 15 17 19 20 19
24 29 40 42 43 42 41 41 41 37 35 33 30 26 23 19 14 11 8 6 4 4 5 5 5 6 6 6 6 6 7 9 9 12 12 16 17 16 18 18 17 17 17
27 34 41 41 41 42 40 39 38 36 33 30 27 23 18 14 11 8 6 5 5 6 6 6 6 6 5 5 5 6 7 9 11 12 14 14 14 14 15 14 15 16 17
28 32 37 42 40 39 39 36 33 30 28 26 22 17 14 11 8 6 5 5 6 7 6 5 6 6 6 7 8 10 11 11 11 12 13 13 14 15 14 14 16 16 17
Wind_Direction
232 233 237 235 228 219 213 209 209 205 205 204 204 205 207 206 205 203 200 199 197 191 184 181 170 159 146 133 119 108 96 99 103 103 108 92 45 19 6 49 30 10 9
228 221 216 225 230 226 214 212 213 211 209 209 210 212 211 208 208 206 202 200 198 194 190 187 178 169 159 147 130 119 109 104 98 128 146 160 326 316 353 7 13 18 16
235 217 220 230 231 226 222 215 214 213 214 213 212 212 212 210 207 206 204 202 199 196 192 189 185 178 170 161 144 132 123 116 105 99 139 110 141 351 323 331 355 6 9
235 229 230 224 222 239 226 223 219 215 217 215 215 215 215 210 212 212 206 202 200 197 194 191 189 183 178 171 160 143 128 112 103 91 90 105 113 102 177 327 317 347 352
235 229 221 226 232 224 225 228 221 218 215 220 215 214 213 216 218 209 206 204 200 197 194 194 191 188 185 183 180 164 139 111 87 83 78 66 64 72 86 290 316 351 327
241 237 236 232 225 218 219 223 225 219 217 217 215 214 213 213 213 210 206 203 200 198 196 194 192 191 190 193 195 190 181 153 49 34 43 46 65 335 359 321 321 322 307
239 245 233 232 220 217 217 219 223 219 217 218 215 213 211 213 215 212 209 204 201 199 196 194 194 194 197 201 206 212 221 242 267 290 302 307 306 312 316 321 322 321 317
243 249 250 243 230 221 213 216 223 217 216 217 214 211 208 209 210 211 210 207 203 199 196 194 196 199 202 207 216 224 234 247 261 278 287 294 299 308 312 313 319 320 306
254 260 254 242 235 228 226 222 220 218 216 215 211 208 206 207 208 205 202 200 199 197 196 196 199 202 205 212 220 229 238 248 262 275 286 292 299 305 306 308 309 302 306
256 251 246 237 225 228 225 221 223 217 210 206 208 210 206 205 202 199 199 198 196 195 195 197 200 203 207 213 221 228 237 248 262 275 284 290 298 303 306 306 304 299 283
257 243 241 235 221 218 220 217 214 213 207 198 198 204 203 199 193 195 196 195 195 194 195 196 199 202 207 212 218 225 235 248 264 275 283 289 298 303 304 303 300 297 290
266 252 248 237 223 211 207 206 207 206 199 192 194 193 194 193 189 193 192 193 192 193 193 192 196 201 203 205 211 220 228 233 245 262 277 290 299 301 301 301 299 298 297
268 241 227 217 215 205 200 199 199 198 190 184 185 186 184 186 186 190 186 189 190 192 186 187 188 191 195 198 193 188 201 231 261 279 288 294 299 301 301 303 303 303 303
258 234 212 203 200 199 196 194 189 185 181 180 182 183 179 183 180 186 184 183 185 183 180 179 181 180 177 178 186 202 235 263 283 292 296 299 302 303 306 307 306 305 303
238 221 203 198 192 185 182 179 177 177 179 180 181 180 178 180 177 185 177 175 176 175 173 168 165 168 173 184 203 228 261 281 290 295 300 302 303 303 303 302 299 301 300
230 214 201 191 186 181 178 175 176 178 179 180 179 177 175 172 175 175 171 171 164 168 163 161 160 174 183 200 231 260 281 290 293 296 299 299 301 300 300 298 297 296 296
225 210 200 191 186 183 178 175 177 176 177 179 176 174 172 169 170 168 165 163 159 164 160 159 163 180 215 247 271 287 294 295 297 299 300 301 302 303 304 304 302 300 295
223 208 198 189 187 184 181 178 177 177 176 174 172 169 167 167 165 162 161 160 161 159 164 168 173 205 243 271 284 293 296 296 299 300 300 301 302 303 307 308 305 305 302
227 206 194 187 183 182 181 180 177 173 172 172 171 168 169 167 163 161 161 160 163 163 170 180 202 239 261 276 284 294 296 298 300 301 303 303 304 303 305 307 307 305 303
202 188 182 182 180 177 174 172 169 168 167 167 165 166 164 162 160 161 160 162 165 170 185 203 234 259 272 280 289 296 299 302 301 300 302 303 306 306 304 304 300 301 301
186 183 182 179 177 173 172 168 167 165 164 162 161 160 160 161 162 160 161 164 173 185 206 231 257 267 275 284 292 294 299 301 301 301 304 303 306 302 301 295 295 290 296
179 180 175 176 172 173 173 169 167 165 163 160 160 159 160 160 161 163 166 172 187 204 230 253 267 273 279 285 291 297 297 294 296 295 295 300 306 304 294 296 289 298 299
168 171 176 171 170 173 175 166 160 162 160 159 161 160 159 161 163 166 176 186 205 229 248 255 257 267 283 295 301 300 293 286 288 286 290 298 297 300 304 300 305 304 300
164 169 171 167 162 168 171 167 160 159 160 160 160 160 162 165 169 178 186 199 223 242 248 250 260 276 289 298 297 298 301 300 303 301 305 300 301 301 305 307 307 303 302
167 163 163 159 158 166 164 162 159 160 159 158 158 160 165 171 175 182 197 219 238 244 248 258 266 275 285 281 285 288 293 291 295 306 299 299 302 304 307 304 302 303 302
147 149 152 160 159 160 158 156 157 159 158 158 161 166 170 175 183 198 217 236 247 256 256 257 267 280 285 289 292 294 295 298 304 294 295 298 302 306 303 300 304 308 310
Height
1481 1482 1487 1489 1493 1499 1502 1505 1509 1512 1515 1518 1521 1524 1527 1530 1533 1535 1537 1539 1541 1542 1543 1544 1545 1546 1547 1548 1548 1548 1548 1547 1548 1549 1550 1550 1550 1550 1550 1549 1548 1548 1546
1475 1477 1479 1484 1488 1494 1496 1499 1504 1507 1510 1514 1517 1521 1524 1527 1530 1533 1535 1537 1539 1540 1542 1543 1544 1545 1547 1547 1548 1548 1548 1547 1548 1549 1550 1552 1552 1551 1550 1549 1549 1548 1547
1466 1470 1472 1475 1481 1486 1490 1492 1496 1502 1506 1510 1513 1517 1521 1523 1526 1529 1532 1534 1536 1538 1540 1541 1543 1544 1546 1547 1547 1547 1547 1547 1548 1548 1549 1550 1551 1550 1550 1549 1549 1549 1548
1460 1463 1464 1467 1470 1478 1484 1487 1490 1495 1500 1503 1508 1512 1516 1519 1522 1526 1529 1531 1534 1536 1537 1539 1541 1542 1544 1546 1547 1547 1547 1547 1547 1547 1548 1548 1549 1550 1552 1550 1549 1549 1548
1454 1455 1457 1461 1467 1471 1477 1482 1484 1489 1494 1499 1503 1508 1512 1516 1519 1522 1525 1528 1531 1533 1535 1537 1539 1541 1543 1544 1545 1545 1546 1546 1546 1547 1547 1548 1548 1549 1550 1551 1550 1549 1547
1445 1449 1451 1456 1460 1464 1468 1474 1478 1483 1488 1493 1498 1503 1507 1510 1514 1517 1521 1525 1528 1530 1532 1535 1537 1539 1541 1543 1544 1544 1544 1545 1545 1546 1547 1547 1548 1548 1548 1549 1548 1547 1547
1440 1441 1445 1448 1453 1455 1460 1465 1470 1474 1482 1488 1493 1499 1503 1507 1511 1514 1517 1520 1523 1526 1529 1532 1535 1537 1539 1541 1542 1543 1543 1544 1544 1545 1546 1546 1546 1546 1547 1547 1547 1546 1544
1437 1435 1437 1440 1442 1447 1453 1457 1460 1465 1475 1482 1489 1494 1499 1503 1507 1510 1513 1517 1521 1524 1526 1529 1532 1535 1537 1539 1541 1541 1542 1542 1543 1543 1544 1545 1545 1544 1544 1545 1545 1545 1544
1431 1432 1431 1433 1437 1439 1444 1448 1451 1455 1467 1477 1485 1490 1494 1498 1502 1507 1511 1514 1517 1520 1524 1527 1529 1532 1534 1537 1538 1539 1540 1540 1541 1542 1543 1544 1543 1542 1542 1542 1542 1543 1543
1424 1425 1426 1428 1430 1434 1438 1443 1446 1451 1461 1465 1476 1487 1492 1497 1500 1503 1508 1512 1514 1518 1521 1524 1527 1529 1532 1534 1535 1537 1537 1538 1539 1540 1541 1541 1541 1539 1539 1539 1539 1539 1539
1421 1419 1419 1421 1424 1427 1431 1436 1439 1447 1453 1458 1469 1476 1488 1493 1495 1500 1506 1510 1513 1517 1519 1521 1524 1527 1529 1531 1532 1534 1535 1536 1537 1538 1539 1539 1538 1537 1537 1536 1536 1535 1534
1418 1417 1416 1416 1419 1423 1427 1430 1437 1442 1447 1448 1463 1474 1482 1490 1486 1496 1502 1508 1510 1515 1517 1518 1521 1524 1526 1528 1530 1531 1532 1534 1535 1535 1536 1536 1535 1534 1534 1533 1532 1531 1529
1414 1414 1414 1415 1416 1418 1423 1425 1431 1438 1445 1453 1463 1472 1477 1481 1486 1495 1494 1503 1507 1514 1514 1515 1518 1522 1524 1526 1527 1529 1530 1532 1533 1533 1533 1533 1532 1531 1530 1529 1528 1527 1526
1413 1412 1412 1414 1415 1417 1419 1423 1429 1438 1444 1451 1462 1468 1469 1479 1483 1494 1494 1498 1508 1509 1509 1512 1515 1518 1522 1525 1526 1527 1528 1530 1529 1529 1529 1528 1528 1527 1526 1525 1524 1522 1521
1409 1410 1411 1415 1416 1417 1420 1424 1431 1438 1446 1453 1460 1464 1468 1478 1476 1494 1495 1498 1503 1505 1507 1509 1514 1518 1520 1523 1525 1525 1526 1526 1526 1525 1525 1524 1523 1522 1521 1521 1520 1519 1517
1404 1407 1409 1411 1415 1418 1421 1425 1431 1439 1446 1452 1457 1462 1467 1470 1483 1490 1491 1497 1496 1506 1507 1508 1510 1518 1519 1520 1523 1523 1522 1522 1522 1522 1521 1520 1519 1518 1517 1516 1515 1514 1512
1399 1401 1403 1407 1411 1417 1421 1424 1431 1437 1444 1451 1457 1461 1466 1473 1482 1487 1489 1494 1496 1505 1506 1508 1510 1514 1517 1518 1520 1519 1518 1519 1518 1517 1516 1516 1514 1513 1512 1511 1510 1508 1507
1391 1394 1398 1404 1408 1415 1421 1424 1429 1435 1441 1450 1457 1463 1468 1474 1481 1483 1488 1492 1498 1501 1506 1509 1509 1513 1514 1515 1515 1515 1514 1514 1513 1513 1511 1511 1510 1509 1508 1506 1506 1504 1503
1383 1388 1393 1399 1405 1410 1417 1422 1427 1431 1440 1448 1458 1464 1469 1474 1478 1483 1488 1493 1498 1501 1504 1506 1508 1511 1512 1511 1511 1510 1510 1510 1509 1508 1507 1507 1506 1505 1504 1503 1503 1502 1500
1379 1384 1389 1395 1401 1408 1413 1421 1428 1436 1442 1450 1453 1464 1469 1473 1480 1484 1488 1493 1497 1499 1503 1504 1506 1508 1508 1508 1507 1506 1506 1506 1506 1505 1504 1503 1502 1501 1501 1501 1499 1498 1496
1378 1381 1387 1393 1400 1406 1412 1419 1428 1435 1442 1450 1457 1464 1469 1476 1481 1484 1489 1492 1497 1499 1501 1502 1503 1505 1505 1504 1503 1502 1502 1502 1502 1501 1501 1500 1500 1499 1498 1497 1495 1493 1490
1377 1384 1384 1392 1400 1409 1414 1419 1427 1434 1441 1449 1460 1464 1470 1476 1480 1483 1488 1491 1495 1497 1498 1498 1499 1501 1501 1500 1499 1499 1499 1499 1499 1499 1499 1498 1496 1495 1493 1491 1489 1487 1485
1381 1384 1388 1391 1402 1411 1416 1420 1429 1436 1442 1449 1460 1464 1469 1475 1480 1483 1487 1489 1492 1493 1494 1495 1497 1497 1497 1496 1496 1496 1496 1496 1496 1496 1494 1493 1491 1490 1488 1486 1484 1481 1479
1384 1387 1390 1396 1401 1411 1419 1424 1430 1438 1444 1451 1458 1466 1471 1475 1479 1482 1484 1486 1487 1489 1491 1492 1493 1493 1493 1493 1493 1493 1494 1493 1493 1492 1491 1489 1487 1485 1483 1480 1478 1476 1474
1387 1391 1392 1399 1406 1411 1420 1428 1433 1440 1447 1454 1460 1466 1471 1474 1477 1479 1480 1482 1484 1486 1487 1488 1489 1490 1490 1490 1490 1491 1491 1491 1489 1488 1487 1484 1484 1481 1479 1476 1474 1472 1469
1392 1395 1398 1402 1411 1417 1424 1432 1438 1444 1449 1455 1461 1466 1470 1472 1473 1475 1477 1479 1481 1482 1483 1484 1485 1486 1486 1487 1486 1486 1485 1485 1484 1484 1483 1481 1479 1476 1474 1472 1469 1466 1464